Location: Asheville, NC
(35.6000°N, 82.5500°W)
Time: 13:51:28
(UTC-04:00)

BEESAT 2 - Pass Details

Date: 15 March 2018
Orbit: 502 x 533 km, 64.9° (Epoch: 19 June)

Event Time Altitude Azimuth Distance (km) Brightness Sun altitude
Exits shadow 05:54:09 11° 342° (NNW) 1,693 ? -22.4°
Maximum altitude 05:57:49 49° 58° (ENE) 682 ? -21.6°
Drops below altitude 10° 06:01:38 10° 134° (SE) 1,756 ? -20.9°
Sets 06:03:51 0° 140° (SE) 2,636 ? -20.4°
